Вернуться в каталог

EXPRESS 103

АктивенСвязьGEO
NORAD 45985·PAYLOAD·🇷🇺 Russia

Запущен Jul 30, 2020 с Baikonur Cosmodrome

Loading…

TLE

СвежийSource: Space-Track

Эпоха: Sep 14, 2026, 15:58 UTC

1 45985U 20053A   26257.66549475 -.00000288  00000-0  00000+0 0  9997
2 45985   0.0413 260.7662 0000950 205.4879 223.4688  1.00272671 22541

Отслеживайте EXPRESS 103 в реальном времени с AllMySat

Download on the App Store